Погода в Краслице

Чехия     50°19′35″N   12°30′47″E
темп.,
°C
ветер,
м/с
пор.,
м/с
влажн.,
%
обл.,
%
осадки,
мм/ч
давл.,
гПа
погр.,
м
21 января, чт
чт2101:000юв2290100 0.0 100547
04:00−1юв1290100 0.0 100334
07:00−2юв2290100 0.0 100447
10:000ю2138899 0.0 1003462
13:00+3ююз4178799 0.0 1002861
16:00+2ю31397100 0.2 1002574
19:00+2ююз41197100 0.6 1002392
22:00+2ююз31397100 0.4 1001507
22 января, пт
пт2201:000ю2693100 0.4 999154
04:00−1ююз2591100 0.0 997150
07:00−1ю31095100 0.0 996274
10:00+2ююз4169526 0.0 995806
13:00+3ююз4149758 0.0 995760
16:00+3ююз2598100 0.1 995165
19:00+2юв1297100 0.1 99549
22:000в2295100 0.0 99526
23 января, сб
сб2301:00+1ссв2393100 0.0 99453
04:00+2с3597100 0.3 992170
07:00+1ссз41198100 3.4 992512
10:00−1ссз61395100 4.6 994628
13:00−1сз61095100 6.6 996715
16:00−1сз3793100 0.6 997510
19:00−3зсз1196100 0.6 99822
22:00−5ю119699 0.0 99921
24 января, вс
вс2401:00−4ююв119799 0.0 99922
04:00−4вюв1195100 0.0 99822
07:00−4юв1192100 0.0 99824
10:00−2вюв1296100 0.4 999152
13:00−1ю1297100 0.9 999188
16:00−2сз51094100 3.8 1000720
19:00−3зсз3897100 4.3 1002309
22:00−4з259885 0.1 1003176
25 января, пн
пн2501:00−4зсз129793 0.2 100364
04:00−6зюз1196100 0.0 100423
07:00−6юз1197100 0.0 100623
10:00−4юз1195100 0.1 1008155
13:00−2зюз248995 0.1 1009581
16:00−3з369378 0.1 1010281
19:00−4зюз249286 0.1 1011228
22:00−4ююз2597100 0.9 1011261